カタログに戻る

STARLINK-4525

運用中通信VLEO
NORAD 53401·PAYLOAD·🇺🇸 United States

打ち上げ Aug 10, 2022 から Cape Canaveral Space Force Station

Loading…

次のパス (今後24時間)

TLE

最新Source: CelesTrak SupGP

元期: Sep 15, 2026, 01:19 UTC

1 53401C 22097P   26258.05534722  .00028436  00000+0  86294-3 0  2586
2 53401  53.1588 347.3419 0001026  79.6540 111.1941 15.33532832    10

AllMySatでSTARLINK-4525をリアルタイム追跡

Download on the App Store